ELECTRON R/B (49053 NORAD) Tracking and Keplerian Element Data

This shows tracking and keplerian element data for the satellite.

Feedback or suggestion? Click here.




ElementValue
Catalog49053
NameELECTRON R/B
Epoch Orbit457
Epoch Day239.94793721
Epoch Year2021
RAAN116.4045
Inclination37.0153
Eccentricity0.023751
Argument of Perigee162.55
Mean Anonmoly198.3593
Mean Motion15.55179126
Decay Rate0.00195614
L11 49053U 21068B 21239.94793721 .00195614 12917-4 72860-3 0 9993
L22 49053 37.0153 116.4045 0237510 162.5500 198.3593 15.55179126 4576

Live tracking and technical data element details for ELECTRON R/B (NORAD 49053). ELECTRON R/B can be tracked NOW for your location showing map with azimuth and elevation plus other details from your city location.

Track the satellite on the map from your city or location and see movement details for azimuth, elevation, latitude, longitude, range, height, and movement on the map or in text.







IsCatalogInMostPopularTable: catalog: 49053, numindb: 13
Update: records affected: 1



GetName: 49053 ELECTRON R/B

Hit Count: updated at: Fri, 24 Sep 2021 17:54:42 GMT